Torna al catalogo

DELTA 1 DEB

AttivoSSO
NORAD 37649·DEBRIS·🇺🇸 United States

Lanciato Mar 5, 1978 da Vandenberg Space Force Base

Loading…

Prossimi Passaggi (prossime 24 ore)

TLE

AggiornatoSource: Space-Track

Epoca: Sep 13, 2026, 13:27 UTC

1 37649U 78026JL  26256.56104007  .00000007  00000-0  41087-4 0  9997
2 37649  99.0680 184.7431 0057071 176.3237 183.8351 13.88190498184799

Traccia DELTA 1 DEB in tempo reale con AllMySat

Download on the App Store